1324684828266,2.41663
1324684888266,2.43389
1324684948266,2.39478
1324685008266,2.41010
1324685068266,2.40826
1324685128266,2.41512
1324685188266,2.41064
1324685248266,2.42016
1324685308266,2.40902
1324685368266,2.40749
1324685428266,2.42213
1324685488266,2.44053
1324685548266,2.40184
1324685608266,2.39432
1324685668266,2.41083
1324685728266,2.41221
1324685788266,2.41329
1324685848266,2.44099
1324685908266,2.41400
1324685968266,2.41290
1324686028266,2.39270
1324686088266,2.41442
1324686148266,2.39708
1324686208266,2.38922
1324686268266,2.41768
1324686328266,2.41394
1324686388266,2.40463
1324686448266,2.39509
1324686508266,2.42121
1324686568266,2.39588
1324686628266,2.42284
1324686688266,2.41216
1324686748266,2.40731
1324686808266,2.38829
1324686868266,2.40070
1324686928266,2.40755
1324686988266,2.40911
1324687048266,2.38452
1324687108266,2.39125
1324687168266,2.39832
1324687228266,2.39410
1324687288266,2.37662
1324687348266,2.40621
1324687408266,2.38834
1324687468266,2.39118
1324687528266,2.40305
1324687588266,2.40294
1324687648266,2.40646
1324687708266,2.40510
1324687768266,2.41276
1324687828266,2.40289
1324687888266,2.40342
1324687948266,2.40826
1324688008266,2.38693
1324688068266,2.40976
1324688128266,2.41176
1324688188266,2.39151
1324688248266,2.41508
1324688308266,2.41261
1324688368266,2.40117
1324688428276,2.39854
1324688488276,2.40200
1324688548276,2.39097
1324688608276,2.38216
1324688668276,2.39054
1324688728276,2.40401
1324688788276,2.39689
1324688848276,2.39623
1324688908276,2.41009
1324688968276,2.38851
1324689028276,2.38244
1324689088276,2.39042
1324689148276,2.42449
1324689208276,2.40381
1324689268276,2.40799
1324689328276,2.39237
1324689388276,2.38996
1324689448276,2.39218
1324689508276,2.38181
1324689568276,2.41902
1324689628276,2.40160
1324689688276,2.39380
1324689748276,2.39521
1324689808276,2.39380
1324689868276,2.38205
1324689928276,2.44156
1324689988276,2.40538
1324690048276,2.39108
1324690108276,2.40047
1324690168276,2.38763
1324690228276,2.39424
1324690288276,2.38641
1324690348276,2.38845
1324690408276,2.38209
1324690468276,2.38936
1324690528276,2.37982
1324690588276,2.38425
1324690648276,2.37035
1324690708276,2.37580
1324690768276,2.39810
1324690828276,2.39246
1324690888276,2.38503
1324690948276,2.39377
1324691008276,2.39518
1324691068276,2.38683
1324691128276,2.39013
1324691188276,2.37900
1324691248276,2.36864
1324691308276,2.36520
1324691368276,2.38280
1324691428276,2.39099
1324691488276,2.37486
1324691548276,2.38382
1324691608276,2.38429
1324691668276,2.38181
1324691728276,2.37980
1324691788276,2.39170
1324691848276,2.47957
1324691908276,2.39403
1324691968276,2.40024
1324692028286,2.45510
1324692088286,2.40000
1324692148286,2.37535
1324692208286,2.38781
1324692268286,2.40078
1324692328286,2.38389
1324692388286,2.39363
1324692448286,2.40234
1324692508286,2.40146
1324692568286,2.39953
1324692628286,2.38450
1324692688286,2.39363
1324692748286,2.37995
1324692808286,2.39076
1324692868286,2.41172
1324692928286,2.39155
1324692988286,2.38187
1324693048286,2.39592
1324693108286,2.38252
1324693168286,2.38126
1324693228286,2.39324
1324693288286,2.37698
1324693348286,2.39822
1324693408286,2.38229
1324693468286,2.40001
1324693528286,2.38971
1324693588286,2.38458
1324693648286,2.38097
1324693708286,2.40299
1324693768286,2.37354
1324693828286,2.39278
1324693888286,2.38648
1324693948286,2.38655
1324694008286,2.39076
1324694068286,2.39445
1324694128286,2.39234
1324694188286,2.38812
1324694248286,2.37017
1324694308286,2.40653
1324694368286,2.38233
1324694428286,2.40081
1324694488286,2.40924
1324694548286,2.42967
1324694608286,2.38713
1324694668286,2.39348
1324694728286,2.38637
1324694788286,2.38555
1324694848286,2.37321
1324694908286,2.38070
1324694968286,2.40275
1324695028286,2.37692
1324695088286,2.37231
1324695148286,2.42373
1324695208286,2.37968
1324695268286,2.37725
1324695328286,2.36806
1324695388286,2.37566
1324695448286,2.37214
1324695508286,2.38001
1324695568286,2.34469
1324695628297,2.36775
1324695688297,2.38782
1324695748297,2.37906
1324695808296,2.38754
1324695868296,2.38400
1324695928296,2.38080
1324695988296,2.38845
1324696048296,2.38761
1324696108296,2.38584
1324696168296,2.38511
1324696228296,2.40406
1324696288296,2.38023
1324696348296,2.34918
1324696408296,2.36660
1324696468296,2.36977
1324696528296,2.37617
1324696588296,2.38573
1324696648296,2.36890
1324696708296,2.38538
1324696768296,2.39769
1324696828297,2.38619
1324696888297,2.38971
1324696948297,2.38635
1324697008297,2.37787
1324697068297,2.38952
1324697128297,2.39467
1324697188296,2.40213
1324697248296,2.40070
1324697308296,2.40603
1324697368296,2.39117
1324697428296,2.40104
1324697488296,2.38686
1324697548296,2.39931
1324697608296,2.39505
1324697668296,2.39711
1324697728296,2.38505
1324697788296,2.40214
1324697848296,2.39091
1324697908296,2.39224
1324697968296,2.39246
1324698028296,2.38206
1324698088296,2.39331
1324698148296,2.39997
1324698208297,2.38730
1324698268297,2.39724
1324698328297,2.39367
1324698388297,2.42059
1324698448297,2.38780
1324698508296,2.38916
1324698568296,2.38974
1324698628296,2.41185
1324698688296,2.39486
1324698748296,2.38978
1324698808296,2.38928
1324698868296,2.38920
1324698928296,2.40002
1324698988296,2.39520
1324699048296,2.40616
1324699108296,2.39285
1324699168296,2.40802
1324699228307,2.41020
1324699288307,2.42110
1324699348307,2.40983
1324699408307,2.38476
1324699468307,2.39815
1324699528307,2.39703
1324699588307,2.38878
1324699648307,2.39648
1324699708307,2.39642
1324699768307,2.37198
1324699828307,2.38432
1324699888307,2.38687
1324699948307,2.41392
1324700008307,2.37046
1324700068307,2.38031
1324700128307,2.39323
1324700188307,2.37060
1324700248307,2.38017
1324700308307,2.42482
1324700368307,2.39068
1324700428307,2.39846
1324700488307,2.40854
1324700548307,2.39275
1324700608307,2.42619
1324700668307,2.40380
1324700728307,2.42331
1324700788307,2.41321
1324700848307,2.41291
1324700908307,2.42030
1324700968307,2.40433
1324701028307,2.41569
1324701088307,2.40764
1324701148307,2.41992
1324701208307,2.41910
1324701268307,2.41668
1324701328307,2.41528
1324701388307,2.40438
1324701448307,2.41525
1324701508307,2.40960
1324701568307,2.40303
1324701628307,2.40587
1324701688307,2.42264
1324701748307,2.41693
1324701808307,2.42855
1324701868307,2.43734
1324701928307,2.43536
1324701988307,2.43223
1324702048307,2.45265
1324702108307,2.42528
1324702168307,2.44935
1324702228307,2.44084
1324702288307,2.42312
1324702348307,2.42279
1324702408307,2.42891
1324702468307,2.43531
1324702528307,2.40022
1324702588307,2.41832
1324702648307,2.43622
1324702708307,2.44247
1324702768307,2.43455
1324702828317,2.43575
1324702888317,2.43420
1324702948317,2.43806
1324703008317,2.41896
1324703068317,2.46205
1324703128317,2.45536
1324703188317,2.43762
1324703248317,2.42863
1324703308317,2.43676
1324703368317,2.43610
1324703428317,2.42823
1324703488317,2.41127
1324703548317,2.52712
1324703608317,2.43677
1324703668317,2.42017
1324703728317,2.42614
1324703788317,2.43528
1324703848317,2.42194
1324703908317,2.43053
1324703968317,2.44819
1324704028317,2.41458
1324704088317,2.43853
1324704148317,2.42163
1324704208317,2.43637
1324704268317,2.42559
1324704328317,2.44036
1324704388317,2.43547
1324704448317,2.42247
1324704508317,2.44604
1324704568317,2.42641
1324704628317,2.43825
1324704688317,2.41856
1324704748317,2.41999
1324704808317,2.43718
1324704868317,2.43336
1324704928317,2.43327
1324704988317,2.44609
1324705048317,2.44055
1324705108317,2.42209
1324705168317,2.44244
1324705228317,2.44077
1324705288317,2.42052
1324705348317,2.42759
1324705408317,2.44661
1324705468317,2.45098
1324705528317,2.44366
1324705588317,2.42867
1324705648317,2.43025
1324705708317,2.42599
1324705768317,2.43382
1324705828317,2.41385
1324705888317,2.40869
1324705948317,2.42889
1324706008317,2.43613
1324706068317,2.43781
1324706128317,2.42865
1324706188317,2.42729
1324706248317,2.43913
1324706308317,2.38542
1324706368317,2.42541
1324706428328,2.43275
1324706488328,2.41465
1324706548328,2.43187
1324706608328,2.44159
1324706668328,2.44853
1324706728328,2.42843
1324706788328,2.41833
1324706848328,2.42526
1324706908328,2.44216
1324706968328,2.43711
1324707028328,2.44114
1324707088328,2.44322
1324707148328,2.43994
1324707208328,2.42786
1324707268328,2.42552
1324707328328,2.43973
1324707388328,2.42260
1324707448328,2.43203
1324707508328,2.44073
1324707568328,2.43531
1324707628328,2.42856
1324707688328,2.42581
1324707748328,2.43805
1324707808328,2.44472
1324707868328,2.42759
1324707928328,2.42919
1324707988328,2.43704
1324708048328,2.42638
1324708108328,2.42192
1324708168328,2.41529
1324708228328,2.42541
1324708288328,2.41106
1324708348328,2.43406
1324708408328,2.42981
1324708468328,2.41726
1324708528328,2.40792
1324708588328,2.42698
1324708648328,2.41845
1324708708328,2.42463
1324708768328,2.43093
1324708828328,2.42157
1324708888328,2.44532
1324708948328,2.43526
1324709008328,2.43704
1324709068328,2.42843
1324709128328,2.40081
1324709188328,2.43283
1324709248328,2.43178
1324709308328,2.42499
1324709368328,2.42526
1324709428328,2.41395
1324709488328,2.44585
1324709548328,2.44049
1324709608328,2.41062
1324709668328,2.41493
1324709728328,2.42110
1324709788328,2.44104
1324709848328,2.42104
1324709908328,2.42587
1324709968328,2.42590
1324710028339,2.41593
1324710088339,2.42418
1324710148339,2.43845
1324710208339,2.42369
1324710268339,2.42011
1324710328339,2.42865
1324710388339,2.42661
1324710448339,2.44033
1324710508339,2.40199
1324710568339,2.41312
1324710628339,2.43226
1324710688339,2.41223
1324710748339,2.41852
1324710808339,2.43164
1324710868339,2.42350
1324710928339,2.43057
1324710988339,2.40867
1324711048339,2.41549
1324711108339,2.42494
1324711168339,2.40985
1324711228339,2.40749
1324711288339,2.41313
1324711348339,2.42920
1324711408339,2.41364
1324711468339,2.41259
1324711528339,2.42411
1324711588339,2.42109
1324711648339,2.43120
1324711708339,2.41899
1324711768339,2.42952
1324711828339,2.42507
1324711888339,2.39658
1324711948339,2.41095
1324712008339,2.41014
1324712068339,2.42809
1324712128339,2.41290
1324712188339,2.41245
1324712248339,2.41458
1324712308339,2.42050
1324712368339,2.42019
1324712428339,2.41970
1324712488339,2.42764
1324712548339,2.42681
1324712608339,2.42232
1324712668339,2.44638
1324712728339,2.41930
1324712788339,2.40942
1324712848339,2.40867
1324712908339,2.40029
1324712968339,2.40698
1324713028339,2.41557
1324713088339,2.40586
1324713148339,2.52490
1324713208339,2.42596
1324713268339,2.40646
1324713328339,2.43029
1324713388339,2.41265
1324713448339,2.41937
1324713508339,2.40824
1324713568339,2.42199
1324713628350,2.42354
1324713688350,2.41932
1324713748350,2.41518
1324713808350,2.42422
1324713868350,2.42113
1324713928350,2.41245
1324713988350,2.43129
1324714048350,2.41396
1324714108350,2.40663
1324714168350,2.40463
1324714228350,2.42770
1324714288350,2.41033
1324714348350,2.41917
1324714408350,2.42425
1324714468350,2.42700
1324714528350,2.41960
1324714588350,2.40675
1324714648350,2.40600
1324714708350,2.39908
1324714768350,2.42332
1324714828350,2.42456
1324714888350,2.41661
1324714948350,2.43093
1324715008350,2.40958
1324715068350,2.39531
1324715128350,2.41271
1324715188350,2.40478
1324715248350,2.42044
1324715308350,2.39992
1324715368350,2.42094
1324715428350,2.43030
1324715488350,2.43361
1324715548350,2.43728
1324715608350,2.44584
1324715668350,2.47659
1324715728350,2.45749
1324715788350,2.48684
1324715848350,2.47213
1324715908350,2.50304
1324715968350,2.51151
1324716028350,2.50274
1324716088350,2.49628
1324716148350,2.52485
1324716208350,2.53722
1324716268350,2.55670
1324716328350,2.57388
1324716388350,2.56206
1324716448350,2.58279
1324716508350,2.58639
1324716568350,2.56929
1324716628350,2.54730
1324716688350,2.56383
1324716748350,2.56261
1324716808350,2.54856
1324716868350,2.56512
1324716928350,2.54997
1324716988350,2.53774
1324717048350,2.51665
1324717108350,2.52730
1324717168350,2.52715
1324717228361,2.51207
1324717288361,2.53519
1324717348361,2.51465
1324717408361,2.52132
1324717468361,2.49998
1324717528362,2.49053
1324717588362,2.52002
1324717648362,2.49638
1324717708361,2.48852
1324717768361,2.49318
1324717828361,2.48411
1324717888361,2.48734
1324717948361,2.49919
1324718008361,2.48181
1324718068361,2.47089
1324718128361,2.47772
1324718188361,2.47032
1324718248361,2.47332
1324718308361,2.48479
1324718368361,2.45664
1324718428361,2.46370
1324718488361,2.46991
1324718548361,2.44944
1324718608361,2.43713
1324718668361,2.45295
1324718728361,2.47059
1324718788361,2.46869
1324718848361,2.43176
1324718908362,2.45897
1324718968362,2.47468
1324719028362,2.45854
1324719088361,2.46470
1324719148361,2.45360
1324719208361,2.45348
1324719268361,2.47098
1324719328361,2.45085
1324719388361,2.47196
1324719448361,2.44638
1324719508361,2.46838
1324719568361,2.47615
1324719628361,2.44114
1324719688361,2.46041
1324719748361,2.43907
1324719808361,2.44998
1324719868361,2.44919
1324719928361,2.44435
1324719988361,2.44898
1324720048361,2.45373
1324720108361,2.44961
1324720168361,2.42808
1324720228362,2.43519
1324720288362,2.43689
1324720348362,2.44879
1324720408361,2.42101
1324720468361,2.44055
1324720528361,2.43702
1324720588361,2.45328
1324720648361,2.43529
1324720708361,2.43033
1324720768361,2.44160
1324720828373,2.43099
1324720888373,2.43766
1324720948373,2.43081
1324721008373,2.44391
1324721068373,2.42748
1324721128373,2.46475
1324721188373,2.44183
1324721248373,2.43986
1324721308373,2.41159
1324721368373,2.45123
1324721428373,2.43604
1324721488373,2.42709
1324721548373,2.43365
1324721608373,2.45022
1324721668373,2.43602
1324721728373,2.43438
1324721788373,2.43601
1324721848373,2.42743
1324721908373,2.44159
1324721968373,2.44793
1324722028373,2.42940
1324722088373,2.43424
1324722148373,2.44348
1324722208373,2.43758
1324722268373,2.44266
1324722328373,2.42994
1324722388373,2.43844
1324722448373,2.43083
1324722508373,2.44565
1324722568373,2.43331
1324722628373,2.45460
1324722688373,2.43686
1324722748373,2.45156
1324722808373,2.45414
1324722868373,2.44978
1324722928373,2.45770
1324722988373,2.44323
1324723048373,2.44604
1324723108373,2.44577
1324723168373,2.44056
1324723228373,2.41987
1324723288373,2.44973
1324723348373,2.45760
1324723408373,2.42878
1324723468373,2.43571
1324723528373,2.43250
1324723588373,2.43531
1324723648373,2.44304
1324723708373,2.40887
1324723768373,2.44234
1324723828373,2.43180
1324723888373,2.43442
1324723948373,2.45752
1324724008373,2.45067
1324724068373,2.45362
1324724128373,2.43148
1324724188373,2.44059
1324724248373,2.43391
1324724308373,2.42706
1324724368373,2.44786
1324724428385,2.45682
1324724488385,2.45603
1324724548385,2.44012
1324724608385,2.44010
1324724668385,2.42089
1324724728385,2.41859
1324724788385,2.43467
1324724848385,2.44702
1324724908385,2.45394
1324724968385,2.42829
1324725028385,2.44534
1324725088385,2.42736
1324725148385,2.43975
1324725208385,2.44806
1324725268385,2.43157
1324725328385,2.47625
1324725388385,2.44556
1324725448385,2.45237
1324725508385,2.45441
1324725568385,2.44969
1324725628385,2.44412
1324725688385,2.44675
1324725748385,2.43500
1324725808385,2.44970
1324725868385,2.46691
1324725928385,2.46501
1324725988385,2.45151
1324726048385,2.46093
1324726108385,2.45078
1324726168385,2.46503
1324726228385,2.46180
1324726288385,2.47364
1324726348385,2.45549
1324726408385,2.46190
1324726468385,2.44284
1324726528385,2.46766
1324726588385,2.47886
1324726648385,2.45059
1324726708385,2.46692
1324726768385,2.47433
1324726828385,2.45820
1324726888385,2.47019
1324726948385,2.45735
1324727008385,2.47037
1324727068385,2.44640
1324727128385,2.45790
1324727188385,2.46814
1324727248385,2.47737
1324727308385,2.47890
1324727368385,2.50081
1324727428385,2.49948
1324727488385,2.47707
1324727548385,2.46701
1324727608385,2.48483
1324727668385,2.49021
1324727728385,2.49108
1324727788385,2.48957
1324727848385,2.48035
1324727908385,2.49940
1324727968385,2.49799
1324728028397,2.48981
1324728088397,2.47986
1324728148397,2.50455
1324728208397,2.48975
1324728268397,2.49006
1324728328397,2.48865
1324728388397,2.51031
1324728448397,2.48910
1324728508397,2.49021
1324728568397,2.51015
1324728628397,2.51095
1324728688397,2.51656
1324728748397,2.50192
1324728808397,2.50251
1324728868397,2.49041
1324728928397,2.53134
1324728988397,2.52305
1324729048397,2.50831
1324729108397,2.50693
1324729168397,2.55083
1324729228397,2.52628
1324729288397,2.52682
1324729348397,2.51390
1324729408397,2.52813
1324729468397,2.54362
1324729528397,2.51142
1324729588397,2.53973
1324729648397,2.53732
1324729708397,2.54366
1324729768397,2.52921
1324729828397,2.53910
1324729888397,2.55846
1324729948397,2.56089
1324730008397,2.52536
1324730068397,2.56522
1324730128397,2.55087
1324730188397,2.54846
1324730248397,2.55238
1324730308397,2.54453
1324730368397,2.55717
1324730428397,2.55647
1324730488397,2.55698
1324730548397,2.55486
1324730608397,2.56870
1324730668397,2.56501
1324730728397,2.56134
1324730788397,2.55390
1324730848397,2.54590
1324730908397,2.55988
1324730968397,2.54582
1324731028397,2.55991
1324731088397,2.55993
1324731148397,2.54977
1324731208397,2.57806
1324731268397,2.57336
1324731328397,2.55847
1324731388397,2.57503
1324731448397,2.54260
1324731508397,2.54800
1324731568397,2.54712
1324731628409,2.56083
1324731688409,2.54558
1324731748409,2.55836
1324731808409,2.54537
1324731868409,2.56424
1324731928409,2.56983
1324731988409,2.55294
1324732048409,2.56121
1324732108409,2.56037
1324732168409,2.56514
1324732228409,2.56252
1324732288409,2.54539
1324732348409,2.56219
1324732408409,2.53329
1324732468409,2.52837
1324732528409,2.55744
1324732588409,2.53842
1324732648409,2.53783
1324732708409,2.56158
1324732768409,2.53587
1324732828409,2.53077
1324732888409,2.55193
1324732948409,2.55521
1324733008409,2.43062
1324733068409,2.52237
1324733128409,2.57326
1324733188409,2.53501
1324733248409,2.53143
1324733308409,2.54857
1324733368409,2.53190
1324733428409,2.50916
1324733488409,2.53087
1324733548409,2.53124
1324733608409,2.55620
1324733668409,2.32155
1324733728409,2.52821
1324733788409,2.52475
1324733848409,2.52568
1324733908409,2.51302
1324733968409,2.52312
1324734028409,2.51857
1324734088409,2.51407
1324734148409,2.51669
1324734208409,2.51692
1324734268409,2.52007
1324734328409,2.53541
1324734388409,2.51331
1324734448409,2.52091
1324734508409,2.52632
1324734568409,2.51248
1324734628409,2.52497
1324734688409,2.52115
1324734748409,2.51346
1324734808409,2.50227
1324734868409,2.51776
1324734928409,2.51213
1324734988409,2.50929
1324735048409,2.51595
1324735108409,2.53502
1324735168409,2.51175
1324735228421,2.50706
1324735288421,2.50672
1324735348421,2.49219
1324735408421,2.50928
1324735468421,2.50195
1324735528421,2.49854
1324735588421,2.49766
1324735648421,2.48860
1324735708421,2.50967
1324735768421,2.50967
1324735828421,2.52391
1324735888421,2.49648
1324735948421,2.50207
1324736008421,2.48817
1324736068421,2.49732
1324736128421,2.49542
1324736188421,2.50586
1324736248421,2.50082
1324736308421,2.49507
1324736368421,2.49685
1324736428421,2.48561
1324736488421,2.49833
1324736548421,2.49545
1324736608421,2.47913
1324736668421,2.51034
1324736728421,2.50216
1324736788421,2.53878
1324736848421,2.49458
1324736908421,2.51182
1324736968421,2.49409
1324737028421,2.50994
1324737088421,2.50432
1324737148421,2.49819
1324737208421,2.51064
1324737268421,2.51227
1324737328421,2.50218
1324737388421,2.50613
1324737448421,2.50504
1324737508421,2.49129
1324737568421,2.51603
1324737628421,2.49864
1324737688421,2.49897
1324737748421,2.50293
1324737808421,2.49883
1324737868421,2.50444
1324737928421,2.49299
1324737988421,2.50932
1324738048421,2.49951
1324738108421,2.49633
1324738168421,2.48521
1324738228421,2.48895
1324738288421,2.47562
1324738348421,2.50218
1324738408421,2.50490
1324738468421,2.49742
1324738528421,2.49853
1324738588421,2.50313
1324738648421,2.50060
1324738708421,2.50064
1324738768421,2.50159
1324738828432,2.49645
1324738888432,2.48801
1324738948432,2.49635
1324739008432,2.49528
1324739068432,2.48945
1324739128432,2.48869
1324739188433,2.49419
1324739248433,2.49711
1324739308433,2.51594
1324739368433,2.51164
1324739428433,2.49505
1324739488433,2.52345
1324739548433,2.52939
1324739608433,2.54365
1324739668433,2.51700
1324739728433,2.50453
1324739788433,2.52672
1324739848433,2.51093
1324739908433,2.51431
1324739968433,2.52921
1324740028433,2.51576
1324740088433,2.48282
1324740148432,2.51651
1324740208432,2.51396
1324740268432,2.51960
1324740328432,2.50860
1324740388432,2.49455
1324740448432,2.52124
1324740508433,2.50759
1324740568433,2.51434
1324740628433,2.52024
1324740688433,2.50070
1324740748433,2.50444
1324740808433,2.49821
1324740868433,2.51977
1324740928433,2.53948
1324740988433,2.52587
1324741048433,2.51164
1324741108433,2.51566
1324741168433,2.52638
1324741228433,2.51848
1324741288433,2.52135
1324741348433,2.51039
1324741408433,2.52044
1324741468433,2.51096
1324741528432,2.50487
1324741588432,2.52769
1324741648432,2.51306
1324741708432,2.51263
1324741768432,2.51480
1324741828432,2.50514
1324741888433,2.52456
1324741948433,2.52089
1324742008433,2.53045
1324742068433,2.50966
1324742128433,2.52034
1324742188433,2.51151
1324742248433,2.51424
1324742308433,2.51590
1324742368433,2.49278
1324742428444,2.51430
1324742488444,2.50549
1324742548444,2.51146
1324742608444,2.49880
1324742668444,2.52433
1324742728444,2.51204
1324742788444,2.52096
1324742848444,2.52817
1324742908444,2.52048
1324742968444,2.51145
1324743028444,2.53741
1324743088444,2.51312
1324743148444,2.51248
1324743208444,2.49678
1324743268444,2.45775
1324743328444,2.49421
1324743388444,2.51009
1324743448444,2.51456
1324743508444,2.51796
1324743568444,2.50744
1324743628444,2.49342
1324743688444,2.50854
1324743748444,2.49941
1324743808444,2.50390
1324743868444,2.51875
1324743928444,2.53660
1324743988444,2.50857
1324744048444,2.49439
1324744108444,2.50014
1324744168444,2.52116
1324744228444,2.48599
1324744288444,2.49975
1324744348444,2.50139
1324744408444,2.51483
1324744468444,2.49324
1324744528444,2.49945
1324744588444,2.50180
1324744648444,2.50533
1324744708444,2.49546
1324744768444,2.50345
1324744828444,2.50381
1324744888444,2.49170
1324744948444,2.49389
1324745008444,2.50321
1324745068444,2.49391
1324745128444,2.49548
1324745188444,2.50291
1324745248444,2.50641
1324745308444,2.50146
1324745368444,2.52116
1324745428444,2.51374
1324745488444,2.50711
1324745548444,2.49978
1324745608444,2.48540
1324745668444,2.49773
1324745728444,2.48614
1324745788444,2.49781
1324745848444,2.49968
1324745908444,2.51207
1324745968444,2.50696
1324746028456,2.50785
1324746088456,2.50322
1324746148456,2.50797
1324746208456,2.49295
1324746268456,2.48650
1324746328456,2.48225
1324746388456,2.48672
1324746448456,2.49777
1324746508456,2.50484
1324746568456,2.48606
1324746628456,2.49499
1324746688456,2.48888
1324746748456,2.49898
1324746808456,2.51696
1324746868456,2.38781
1324746928456,2.48074
1324746988456,2.51047
1324747048456,2.49481
1324747108456,2.50934
1324747168456,2.50530
1324748248456,2.49841
1324748308456,2.48054
1324748368456,2.48145
1324748428456,2.47612
1324748488456,2.47992
1324748548456,2.48214
1324748608456,2.49289
1324748668456,2.47290
1324748728456,2.50342
1324748788456,2.48493
1324748848456,2.48305
1324748908456,2.46752
1324748968456,2.47995
1324749628467,2.47937
1324749688467,2.50863
1324749748467,2.47555
1324749808467,2.44949
1324749868467,2.45954
1324749928467,2.48430
1324749988467,2.52630
1324750048467,2.49054
1324750108467,2.52253
1324750168467,2.48105
1324751428467,2.47091
1324751488467,2.52214
1324751548467,2.48931
1324751608467,2.48876
1324751668467,2.47557
1324751728467,2.47830
1324751788467,2.47798
1324751848467,2.49202
1324751908467,2.48472
1324751968467,2.48075
1324752028467,2.49340
1324752088467,2.50582
1324752148467,2.47486
1324752208467,2.49937
1324752268467,2.47951
1324752328467,2.47971
1324752388467,2.49501
1324752448467,2.47626
1324752508467,2.49404
1324752568467,2.48024
1324752628467,2.47942
1324752688467,2.47455
1324752748467,2.47846
1324752808467,2.48036
1324752868467,2.48912
1324752928467,2.50809
1324752988467,2.48170